BAW47C KMSY-KLIT

Flight info

Callsign BAW47C
Flight time 1h 6m
Altitude 37000
Route MCB/N0474F380 LIT
Aircraft B744/H-SDE3FGHIM1M2RWXY/LB1

Departure

Time 2026-04-26 13:47
Airport Louis Armstrong New Orleans International Airport (KMSY)

Arrival

Time 2026-04-26 14:53
Airport Bill & Hillary Clinton National Airport/Adams Field (KLIT)
Time Latitude Longitude Altitude Speed Heading
2026-04-26 13:13 29.98871 -90.25853 7 ft 0 kts 205°
2026-04-26 13:37 29.98874 -90.25852 21 ft 2 kts 205°
2026-04-26 13:37 29.98899 -90.25838 21 ft 4 kts 204°
2026-04-26 13:37 29.98929 -90.25826 16 ft 4 kts 176°
2026-04-26 13:37 29.98955 -90.25844 20 ft 4 kts 120°
2026-04-26 13:38 29.98969 -90.25876 21 ft 4 kts 118°
2026-04-26 13:38 29.98986 -90.25906 21 ft 4 kts 108°
2026-04-26 13:38 29.98989 -90.25918 21 ft 0 kts 102°
2026-04-26 13:41 29.98985 -90.25896 18 ft 4 kts 101°
2026-04-26 13:41 29.98974 -90.25837 18 ft 10 kts 104°
2026-04-26 13:41 29.98952 -90.25744 20 ft 14 kts 107°
2026-04-26 13:42 29.98921 -90.25620 19 ft 18 kts 106°
2026-04-26 13:42 29.98896 -90.25517 18 ft 17 kts 105°
2026-04-26 13:42 29.98878 -90.25441 18 ft 9 kts 105°
2026-04-26 13:42 29.98858 -90.25357 16 ft 13 kts 105°
2026-04-26 13:43 29.98838 -90.25271 16 ft 14 kts 105°
2026-04-26 13:43 29.98824 -90.25214 15 ft 5 kts 105°
2026-04-26 13:43 29.98825 -90.25184 14 ft 3 kts 55°
2026-04-26 13:43 29.98825 -90.25183 14 ft 0 kts 53°
2026-04-26 13:45 29.98852 -90.25162 12 ft 8 kts 19°
2026-04-26 13:45 29.98908 -90.25144 12 ft 8 kts 353°
2026-04-26 13:46 29.98953 -90.25233 14 ft 27 kts 283°
2026-04-26 13:46 29.99065 -90.25702 15 ft 90 kts 285°
2026-04-26 13:46 29.99277 -90.26577 17 ft 131 kts 285°
2026-04-26 13:46 29.99536 -90.27681 62 ft 149 kts 285°
2026-04-26 13:47 29.99804 -90.28860 562 ft 155 kts 284°
2026-04-26 13:47 30.00080 -90.30065 1114 ft 158 kts 287°
2026-04-26 13:47 30.00860 -90.30976 1476 ft 175 kts 341°
2026-04-26 13:47 30.02120 -90.31083 2039 ft 188 kts 358°
2026-04-26 13:48 30.03486 -90.31130 2534 ft 202 kts 358°
2026-04-26 13:48 30.04960 -90.31136 3063 ft 213 kts 360°
2026-04-26 13:48 30.06556 -90.31101 3632 ft 234 kts
2026-04-26 13:48 30.08240 -90.31058 4265 ft 253 kts
2026-04-26 13:49 30.10034 -90.30851 4997 ft 265 kts 15°
2026-04-26 13:49 30.11709 -90.30023 6102 ft 268 kts 25°
2026-04-26 13:49 30.13356 -90.29006 7113 ft 270 kts 27°
2026-04-26 13:49 30.15026 -90.27935 8057 ft 278 kts 27°
2026-04-26 13:50 30.16713 -90.26815 9029 ft 281 kts 28°
2026-04-26 13:50 30.18423 -90.25669 10045 ft 283 kts 28°
2026-04-26 13:50 30.20176 -90.24481 10784 ft 302 kts 28°
2026-04-26 13:50 30.22041 -90.23199 11339 ft 322 kts 28°
2026-04-26 13:51 30.24020 -90.21828 11860 ft 341 kts 28°
2026-04-26 13:51 30.26076 -90.20409 12353 ft 356 kts 28°
2026-04-26 13:51 30.28249 -90.18915 12879 ft 364 kts 28°
2026-04-26 13:51 30.30462 -90.17373 13536 ft 369 kts 28°
2026-04-26 13:52 30.32653 -90.15828 14118 ft 371 kts 29°
2026-04-26 13:52 30.34875 -90.14216 14735 ft 385 kts 29°
2026-04-26 13:52 30.37148 -90.12576 15380 ft 385 kts 29°
2026-04-26 13:52 30.39455 -90.10916 16007 ft 391 kts 29°
2026-04-26 13:53 30.41783 -90.09231 16649 ft 398 kts 28°
2026-04-26 13:53 30.44247 -90.07811 17237 ft 397 kts 17°
2026-04-26 13:53 30.46917 -90.07023 18145 ft 400 kts
2026-04-26 13:53 30.49635 -90.06902 18761 ft 399 kts 354°
2026-04-26 13:54 30.52389 -90.07239 19376 ft 401 kts 350°
2026-04-26 13:54 30.55135 -90.07752 19951 ft 402 kts 347°
2026-04-26 13:54 30.57875 -90.08390 20557 ft 403 kts 345°
2026-04-26 13:55 30.63364 -90.09830 21640 ft 405 kts 345°
2026-04-26 13:55 30.65194 -90.10308 22006 ft 405 kts 345°
2026-04-26 13:55 30.71721 -90.11906 23241 ft 414 kts 345°
2026-04-26 13:56 30.74527 -90.12582 23724 ft 413 kts 346°
2026-04-26 13:56 30.77392 -90.13260 24182 ft 422 kts 346°
2026-04-26 13:56 30.80269 -90.13928 24685 ft 419 kts 346°
2026-04-26 13:56 30.83158 -90.14595 25212 ft 423 kts 345°
2026-04-26 13:57 30.86071 -90.15278 25714 ft 432 kts 345°
2026-04-26 13:57 30.89018 -90.15982 26223 ft 434 kts 345°
2026-04-26 13:57 30.91930 -90.16680 26537 ft 408 kts 345°
2026-04-26 13:57 30.94687 -90.17327 26609 ft 415 kts 345°
2026-04-26 13:58 30.97522 -90.17990 27212 ft 417 kts 345°
2026-04-26 13:58 31.00353 -90.18659 27749 ft 412 kts 345°
2026-04-26 13:58 31.03177 -90.19348 28479 ft 414 kts 342°
2026-04-26 13:58 31.05868 -90.20553 29073 ft 419 kts 330°
2026-04-26 13:59 31.08302 -90.22340 29803 ft 415 kts 322°
2026-04-26 13:59 31.10620 -90.24369 30348 ft 417 kts 320°
2026-04-26 13:59 31.12899 -90.26471 30907 ft 415 kts 320°
2026-04-26 14:00 31.19785 -90.32993 32418 ft 438 kts 319°
2026-04-26 14:00 31.22149 -90.35246 32945 ft 443 kts 319°
2026-04-26 14:00 31.23722 -90.36746 33283 ft 439 kts 319°
2026-04-26 14:01 31.26947 -90.39810 33973 ft 447 kts 319°
2026-04-26 14:01 31.29365 -90.42103 34454 ft 450 kts 319°
2026-04-26 14:01 31.31778 -90.44388 34992 ft 451 kts 319°
2026-04-26 14:01 31.34216 -90.46693 35599 ft 444 kts 319°
2026-04-26 14:02 31.36655 -90.48992 36106 ft 448 kts 319°
2026-04-26 14:02 31.41482 -90.53518 35973 ft 428 kts 319°
2026-04-26 14:03 31.46109 -90.57813 35965 ft 421 kts 319°
2026-04-26 14:03 31.50698 -90.62052 35966 ft 422 kts 319°
2026-04-26 14:04 31.55254 -90.66248 35967 ft 419 kts 319°
2026-04-26 14:04 31.59846 -90.70465 35969 ft 422 kts 319°
2026-04-26 14:05 31.64441 -90.74677 35961 ft 422 kts 319°
2026-04-26 14:05 31.69073 -90.78856 35946 ft 423 kts 321°
2026-04-26 14:06 31.74356 -90.81854 35949 ft 432 kts 333°
2026-04-26 14:06 31.79962 -90.84252 35968 ft 432 kts 336°
2026-04-26 14:07 31.85632 -90.86498 35944 ft 432 kts 337°
2026-04-26 14:07 31.91307 -90.88745 35941 ft 433 kts 336°
2026-04-26 14:08 31.96965 -90.91039 35928 ft 430 kts 336°
2026-04-26 14:08 32.02623 -90.93368 35924 ft 429 kts 336°
2026-04-26 14:09 32.08246 -90.95692 35930 ft 431 kts 336°
2026-04-26 14:09 32.13899 -90.98029 35928 ft 430 kts 336°
2026-04-26 14:10 32.19546 -91.00366 35924 ft 431 kts 336°
2026-04-26 14:10 32.25153 -91.02688 35923 ft 428 kts 336°
2026-04-26 14:11 32.33631 -91.06205 35923 ft 428 kts 335°
2026-04-26 14:11 32.39267 -91.08549 35931 ft 431 kts 335°
2026-04-26 14:12 32.44884 -91.10903 35924 ft 428 kts 335°
2026-04-26 14:12 32.50450 -91.13228 35912 ft 422 kts 335°
2026-04-26 14:13 32.55855 -91.15470 35311 ft 410 kts 335°
2026-04-26 14:13 32.58517 -91.16580 35004 ft 404 kts 335°
2026-04-26 14:13 32.61175 -91.17692 34787 ft 406 kts 335°
2026-04-26 14:14 32.63830 -91.18803 34456 ft 408 kts 335°
2026-04-26 14:14 32.66497 -91.19915 33940 ft 406 kts 335°
2026-04-26 14:14 32.69143 -91.21021 33523 ft 398 kts 335°
2026-04-26 14:14 32.71767 -91.22121 33248 ft 400 kts 335°
2026-04-26 14:15 32.74391 -91.23225 32873 ft 399 kts 335°
2026-04-26 14:15 32.76972 -91.24308 32453 ft 397 kts 335°
2026-04-26 14:15 32.79566 -91.25392 32106 ft 392 kts 335°
2026-04-26 14:15 32.82151 -91.26472 31740 ft 394 kts 335°
2026-04-26 14:16 32.84733 -91.27553 31292 ft 393 kts 335°
2026-04-26 14:16 32.87297 -91.28628 30935 ft 389 kts 335°
2026-04-26 14:16 32.89845 -91.29698 30659 ft 389 kts 335°
2026-04-26 14:16 32.92407 -91.30778 30190 ft 390 kts 335°
2026-04-26 14:17 32.94917 -91.31837 29714 ft 387 kts 335°
2026-04-26 14:17 32.97449 -91.32901 29354 ft 383 kts 335°
2026-04-26 14:17 32.99979 -91.33963 28980 ft 385 kts 335°
2026-04-26 14:17 33.02511 -91.35030 28517 ft 385 kts 334°
2026-04-26 14:18 33.05030 -91.36095 28118 ft 385 kts 334°
2026-04-26 14:18 33.07535 -91.37156 27837 ft 384 kts 334°
2026-04-26 14:18 33.10039 -91.38219 27541 ft 381 kts 334°
2026-04-26 14:18 33.12541 -91.39281 27107 ft 379 kts 334°
2026-04-26 14:19 33.15028 -91.40335 26745 ft 378 kts 334°
2026-04-26 14:19 33.17467 -91.41369 26431 ft 376 kts 334°
2026-04-26 14:19 33.19950 -91.42423 26067 ft 376 kts 334°
2026-04-26 14:19 33.22417 -91.43471 25656 ft 379 kts 334°
2026-04-26 14:20 33.24876 -91.44515 25333 ft 377 kts 334°
2026-04-26 14:20 33.27332 -91.45558 25012 ft 376 kts 334°
2026-04-26 14:20 33.29788 -91.46604 24611 ft 379 kts 334°
2026-04-26 14:20 33.32239 -91.47646 24214 ft 372 kts 334°
2026-04-26 14:21 33.34683 -91.48686 23904 ft 373 kts 334°
2026-04-26 14:21 33.37126 -91.49727 23555 ft 375 kts 334°
2026-04-26 14:21 33.39529 -91.50751 23115 ft 369 kts 334°
2026-04-26 14:21 33.41949 -91.51783 22766 ft 368 kts 334°
2026-04-26 14:22 33.44369 -91.52816 22444 ft 370 kts 334°
2026-04-26 14:22 33.46793 -91.53854 22042 ft 370 kts 334°
2026-04-26 14:22 33.49198 -91.54884 21684 ft 364 kts 334°
2026-04-26 14:22 33.51597 -91.55913 21406 ft 365 kts 334°
2026-04-26 14:23 33.53995 -91.56944 21052 ft 366 kts 334°
2026-04-26 14:23 33.56387 -91.57973 20646 ft 368 kts 334°
2026-04-26 14:23 33.58768 -91.58995 20329 ft 360 kts 334°
2026-04-26 14:23 33.61113 -91.60001 20031 ft 365 kts 334°
2026-04-26 14:24 33.63488 -91.61020 19646 ft 364 kts 334°
2026-04-26 14:24 33.65854 -91.62035 19259 ft 360 kts 334°
2026-04-26 14:24 33.68210 -91.63046 18942 ft 361 kts 335°
2026-04-26 14:24 33.70560 -91.64054 18605 ft 357 kts 335°
2026-04-26 14:25 33.72907 -91.65062 18200 ft 357 kts 335°
2026-04-26 14:25 33.75242 -91.66065 17573 ft 355 kts 335°
2026-04-26 14:25 33.77535 -91.67051 17291 ft 359 kts 335°
2026-04-26 14:25 33.79863 -91.68053 16897 ft 357 kts 335°
2026-04-26 14:26 33.82179 -91.69050 16520 ft 354 kts 335°
2026-04-26 14:26 33.84484 -91.70042 16241 ft 350 kts 335°
2026-04-26 14:26 33.86785 -91.71034 15926 ft 350 kts 335°
2026-04-26 14:26 33.89080 -91.72024 15538 ft 347 kts 335°
2026-04-26 14:27 33.91363 -91.73009 15251 ft 349 kts 335°
2026-04-26 14:27 33.92872 -91.73660 15068 ft 350 kts 336°
2026-04-26 14:27 33.95145 -91.74643 14748 ft 347 kts 336°
2026-04-26 14:27 33.98094 -91.75878 14412 ft 328 kts 335°
2026-04-26 14:28 34.00198 -91.76766 14370 ft 312 kts 335°
2026-04-26 14:28 34.02137 -91.77652 14094 ft 287 kts 335°
2026-04-26 14:28 34.03953 -91.78564 13743 ft 283 kts 338°
2026-04-26 14:28 34.05166 -91.79171 13462 ft 289 kts 341°
2026-04-26 14:29 34.07078 -91.80046 13035 ft 298 kts 345°
2026-04-26 14:29 34.09046 -91.80849 12618 ft 298 kts 346°
2026-04-26 14:29 34.11020 -91.81634 12235 ft 298 kts 347°
2026-04-26 14:29 34.12986 -91.82420 11842 ft 298 kts 346°
2026-04-26 14:30 34.14936 -91.83216 11467 ft 299 kts 346°
2026-04-26 14:30 34.17505 -91.84296 10970 ft 294 kts 345°
2026-04-26 14:30 34.18803 -91.84850 10728 ft 293 kts 345°
2026-04-26 14:30 34.20694 -91.85666 10381 ft 292 kts 345°
2026-04-26 14:31 34.22599 -91.86492 10046 ft 290 kts 345°
2026-04-26 14:31 34.24494 -91.87317 9680 ft 288 kts 345°
2026-04-26 14:31 34.26380 -91.88138 9343 ft 286 kts 345°
2026-04-26 14:31 34.28254 -91.88955 8978 ft 284 kts 345°
2026-04-26 14:32 34.30104 -91.89762 8661 ft 278 kts 344°
2026-04-26 14:32 34.32507 -91.90811 8252 ft 271 kts 344°
2026-04-26 14:32 34.33716 -91.91339 8048 ft 273 kts 344°
2026-04-26 14:32 34.35459 -91.92099 7754 ft 266 kts 344°
2026-04-26 14:33 34.37199 -91.92859 7447 ft 264 kts 344°
2026-04-26 14:33 34.38922 -91.93611 7149 ft 260 kts 344°
2026-04-26 14:33 34.40623 -91.94353 6845 ft 259 kts 344°
2026-04-26 14:33 34.42301 -91.95086 6555 ft 254 kts 344°
2026-04-26 14:34 34.43953 -91.95808 6269 ft 251 kts 344°
2026-04-26 14:34 34.45577 -91.96519 5943 ft 246 kts 344°
2026-04-26 14:34 34.47172 -91.97214 5685 ft 242 kts 343°
2026-04-26 14:34 34.48602 -91.98254 5422 ft 242 kts 320°
2026-04-26 14:35 34.49433 -92.00038 5171 ft 256 kts 284°
2026-04-26 14:35 34.49640 -92.02161 4927 ft 252 kts 272°
2026-04-26 14:35 34.49745 -92.04266 4690 ft 247 kts 270°
2026-04-26 14:35 34.49840 -92.06338 4427 ft 244 kts 270°
2026-04-26 14:36 34.49929 -92.08358 4168 ft 235 kts 270°
2026-04-26 14:36 34.49952 -92.10296 3907 ft 225 kts 264°
2026-04-26 14:36 34.49837 -92.12139 3660 ft 213 kts 261°
2026-04-26 14:36 34.49703 -92.13880 3474 ft 202 kts 261°
2026-04-26 14:37 34.49596 -92.15564 3475 ft 197 kts 262°
2026-04-26 14:37 34.49505 -92.17233 3473 ft 198 kts 263°
2026-04-26 14:37 34.49417 -92.18873 3465 ft 199 kts 263°
2026-04-26 14:37 34.49327 -92.20531 3460 ft 196 kts 263°
2026-04-26 14:38 34.49355 -92.22200 3399 ft 200 kts 274°
2026-04-26 14:38 34.49947 -92.23695 3340 ft 201 kts 313°
2026-04-26 14:38 34.51166 -92.24453 3289 ft 198 kts 348°
2026-04-26 14:38 34.52540 -92.24541 3166 ft 198 kts
2026-04-26 14:39 34.53904 -92.24489 3014 ft 196 kts
2026-04-26 14:39 34.55247 -92.24419 2886 ft 188 kts
2026-04-26 14:39 34.56515 -92.24365 2753 ft 178 kts
2026-04-26 14:39 34.57720 -92.24329 2640 ft 174 kts
2026-04-26 14:40 34.58921 -92.24292 2530 ft 172 kts
2026-04-26 14:40 34.60112 -92.24253 2420 ft 173 kts
2026-04-26 14:40 34.61299 -92.24215 2313 ft 169 kts
2026-04-26 14:40 34.62477 -92.24177 2240 ft 168 kts
2026-04-26 14:41 34.63659 -92.24139 2132 ft 171 kts
2026-04-26 14:41 34.64842 -92.24101 2036 ft 169 kts
2026-04-26 14:41 34.66027 -92.24063 1861 ft 172 kts
2026-04-26 14:41 34.67167 -92.24027 1526 ft 160 kts
2026-04-26 14:42 34.68255 -92.23992 1263 ft 154 kts
2026-04-26 14:42 34.69307 -92.23958 1020 ft 149 kts
2026-04-26 14:42 34.70343 -92.23930 793 ft 148 kts
2026-04-26 14:42 34.71371 -92.23895 580 ft 147 kts
2026-04-26 14:43 34.72458 -92.23865 956 ft 161 kts
2026-04-26 14:43 34.73576 -92.23838 1666 ft 160 kts
2026-04-26 14:43 34.74748 -92.23807 2205 ft 186 kts
2026-04-26 14:43 34.76082 -92.23789 2843 ft 200 kts
2026-04-26 14:44 34.77505 -92.23788 2973 ft 202 kts
2026-04-26 14:44 34.78914 -92.23795 3026 ft 201 kts
2026-04-26 14:44 34.80315 -92.23800 3026 ft 200 kts
2026-04-26 14:44 34.81708 -92.23804 3024 ft 199 kts
2026-04-26 14:45 34.83068 -92.24087 3013 ft 202 kts 329°
2026-04-26 14:45 34.83695 -92.24919 3012 ft 203 kts 295°
2026-04-26 14:45 34.83966 -92.27170 3024 ft 201 kts 270°
2026-04-26 14:45 34.84028 -92.28878 3022 ft 203 kts 270°
2026-04-26 14:46 34.84087 -92.30561 3034 ft 201 kts 270°
2026-04-26 14:46 34.83822 -92.32178 3026 ft 195 kts 231°
2026-04-26 14:46 34.82707 -92.32966 3033 ft 187 kts 186°
2026-04-26 14:46 34.81411 -92.33086 3038 ft 187 kts 180°
2026-04-26 14:47 34.80116 -92.33173 3035 ft 186 kts 180°
2026-04-26 14:47 34.78823 -92.33259 3033 ft 186 kts 180°
2026-04-26 14:47 34.77533 -92.33343 3032 ft 186 kts 180°
2026-04-26 14:47 34.76246 -92.33426 3032 ft 185 kts 180°
2026-04-26 14:48 34.74954 -92.33509 3020 ft 184 kts 180°
2026-04-26 14:48 34.73672 -92.33584 3008 ft 188 kts 179°
2026-04-26 14:48 34.72323 -92.33615 2864 ft 198 kts 177°
2026-04-26 14:48 34.70943 -92.33624 2729 ft 198 kts 177°
2026-04-26 14:49 34.69575 -92.33626 2564 ft 197 kts 177°
2026-04-26 14:49 34.68234 -92.33603 2432 ft 190 kts 176°
2026-04-26 14:49 34.66908 -92.33573 2251 ft 190 kts 176°
2026-04-26 14:49 34.65589 -92.33511 2129 ft 192 kts 173°
2026-04-26 14:50 34.64364 -92.32912 1975 ft 193 kts 139°
2026-04-26 14:50 34.63674 -92.31587 1976 ft 185 kts 106°
2026-04-26 14:50 34.63500 -92.30018 1812 ft 189 kts 92°
2026-04-26 14:50 34.63594 -92.28478 1619 ft 181 kts 77°
2026-04-26 14:51 34.64147 -92.27193 1409 ft 162 kts 52°
2026-04-26 14:51 34.64944 -92.26332 1370 ft 149 kts 41°
2026-04-26 14:51 34.65734 -92.25595 1358 ft 139 kts 37°
2026-04-26 14:51 34.66540 -92.24935 1331 ft 141 kts 35°
2026-04-26 14:52 34.67433 -92.24390 1265 ft 146 kts 25°
2026-04-26 14:52 34.68457 -92.24138 1125 ft 158 kts
2026-04-26 14:52 34.69566 -92.24003 935 ft 162 kts
2026-04-26 14:52 34.70665 -92.23919 716 ft 154 kts
2026-04-26 14:53 34.71707 -92.23876 462 ft 145 kts
2026-04-26 14:53 34.72704 -92.23848 281 ft 139 kts
2026-04-26 14:53 34.73452 -92.23827 273 ft 55 kts
2026-04-26 14:53 34.73609 -92.23820 272 ft 13 kts 358°
2026-04-26 14:54 34.73666 -92.23848 272 ft 10 kts 287°
2026-04-26 14:54 34.73668 -92.23917 272 ft 3 kts 257°
2026-04-26 14:54 34.73627 -92.23958 272 ft 14 kts 179°
2026-04-26 14:54 34.73507 -92.23959 271 ft 11 kts 182°
2026-04-26 14:55 34.73397 -92.23962 272 ft 11 kts 181°
2026-04-26 14:55 34.73316 -92.23964 272 ft 14 kts 180°
2026-04-26 14:55 34.73195 -92.23966 273 ft 19 kts 181°
2026-04-26 14:55 34.73124 -92.23972 273 ft 8 kts 210°
2026-04-26 14:56 34.73093 -92.24037 273 ft 9 kts 263°
2026-04-26 14:56 34.73104 -92.24116 274 ft 11 kts 326°
2026-04-26 14:56 34.73182 -92.24109 273 ft 10 kts 33°
2026-04-26 14:56 34.73194 -92.24099 273 ft 0 kts 33°